When you browse on this site, cookies collect data to enhance your experience and personalize the content and advertising you see.
Visit our Privacy Policy to learn more. By continuing to use the site, you agree to this use of cookies and data.
  • Em Portugal
  • Lista de países
  • Para 7 dias
  • Temperatura da água
  • Mapa do tempo
  • Widgets de tempo
  • user-avatar
    Iniciar Sessão

    Previsão horária em Lakun

    Hoje, 23 Setembro, Segunda-feira

    Tempo Temperatura Precipitação Vento Pressão Humidade
    00:00 +4°C° 0 mm 3 m/s 634 mmHg 59%
    01:00 +5°C° 0 mm 2 m/s 634 mmHg 58%
    02:00 +5°C° 0 mm 2 m/s 634 mmHg 57%
    03:00 +5°C° 0 mm 2 m/s 634 mmHg 56%
    04:00 +5°C° 0 mm 2 m/s 634 mmHg 55%
    05:00 +5°C° 0 mm 2 m/s 634 mmHg 54%
    06:00 +7°C° 0 mm 1 m/s 634 mmHg 53%
    07:00 +9°C° 0 mm 1 m/s 635 mmHg 51%
    08:00 +11°C° 0 mm 1 m/s 635 mmHg 49%
    09:00 +13°C° 0 mm 1 m/s 636 mmHg 45%
    10:00 +14°C° 0 mm 2 m/s 636 mmHg 45%
    11:00 +15°C° 0 mm 2 m/s 636 mmHg 46%
    12:00 +14°C° 0 mm 3 m/s 636 mmHg 46%
    13:00 +15°C° 0 mm 2 m/s 636 mmHg 47%
    14:00 +15°C° 0 mm 2 m/s 635 mmHg 48%
    15:00 +15°C° 0 mm 2 m/s 635 mmHg 49%
    16:00 +13°C° 0 mm 2 m/s 634 mmHg 58%
    17:00 +11°C° 0 mm 1 m/s 634 mmHg 67%
    18:00 +8°C° 0 mm 1 m/s 633 mmHg 77%
    19:00 +8°C° 0 mm 1 m/s 633 mmHg 72%
    20:00 +8°C° 0 mm 1 m/s 633 mmHg 68%
    21:00 +8°C° 0 mm 1 m/s 634 mmHg 63%
    22:00 +8°C° 0 mm 1 m/s 634 mmHg 62%
    23:00 +8°C° 0 mm 1 m/s 633 mmHg 62%

    Amanhã, 24 Setembro, Terça-feira

    Tempo Temperatura Precipitação Vento Pressão Humidade
    00:00 +7°C° 0 mm 1 m/s 633 mmHg 61%
    01:00 +8°C° 0 mm 1 m/s 633 mmHg 61%
    02:00 +8°C° 0 mm 1 m/s 633 mmHg 60%
    03:00 +7°C° 0 mm 2 m/s 633 mmHg 59%
    04:00 +7°C° 0 mm 2 m/s 633 mmHg 60%
    05:00 +7°C° 0 mm 2 m/s 634 mmHg 61%
    06:00 +7°C° 0 mm 2 m/s 634 mmHg 62%
    07:00 +9°C° 0 mm 2 m/s 635 mmHg 58%
    08:00 +13°C° 0 mm 2 m/s 636 mmHg 55%
    09:00 +15°C° 0 mm 2 m/s 636 mmHg 51%
    10:00 +16°C° 0 mm 2 m/s 636 mmHg 51%
    11:00 +16°C° 0 mm 2 m/s 636 mmHg 50%
    12:00 +17°C° 0 mm 3 m/s 636 mmHg 50%
    13:00 +17°C° 0 mm 3 m/s 636 mmHg 50%
    14:00 +17°C° 0 mm 3 m/s 636 mmHg 51%
    15:00 +17°C° 0 mm 2 m/s 635 mmHg 52%
    16:00 +15°C° 0 mm 2 m/s 634 mmHg 61%
    17:00 +13°C° 0 mm 1 m/s 634 mmHg 69%
    18:00 +11°C° 0 mm 1 m/s 633 mmHg 78%
    19:00 +11°C° 0 mm 1 m/s 633 mmHg 71%
    20:00 +11°C° 0 mm 1 m/s 633 mmHg 65%
    21:00 +10°C° 0 mm 1 m/s 633 mmHg 59%
    22:00 +10°C° 0 mm 1 m/s 633 mmHg 60%
    23:00 +9°C° 0 mm 2 m/s 633 mmHg 60%

    Depois de amanhã, 25 Setembro, Quarta-feira

    Tempo Temperatura Precipitação Vento Pressão Humidade
    00:00 +9°C° 0 mm 2 m/s 632 mmHg 61%
    01:00 +9°C° 0 mm 2 m/s 632 mmHg 60%
    02:00 +9°C° 0 mm 2 m/s 632 mmHg 60%
    03:00 +9°C° 0 mm 2 m/s 632 mmHg 60%
    04:00 +9°C° 0 mm 2 m/s 632 mmHg 59%
    05:00 +9°C° 0 mm 2 m/s 632 mmHg 58%
    06:00 +9°C° 0 mm 2 m/s 632 mmHg 57%
    07:00 +13°C° 0 mm 2 m/s 633 mmHg 52%
    08:00 +15°C° 0 mm 2 m/s 634 mmHg 47%
    09:00 +18°C° 0 mm 2 m/s 636 mmHg 42%
    10:00 +18°C° 0 mm 2 m/s 636 mmHg 44%
    11:00 +19°C° 0 mm 3 m/s 636 mmHg 46%
    12:00 +19°C° 0 mm 3 m/s 636 mmHg 48%
    13:00 +19°C° 0 mm 3 m/s 635 mmHg 50%
    14:00 +18°C° 0 mm 3 m/s 635 mmHg 51%
    15:00 +18°C° 0 mm 3 m/s 635 mmHg 53%
    16:00 +16°C° 0 mm 2 m/s 635 mmHg 61%
    17:00 +14°C° 0 mm 2 m/s 634 mmHg 69%
    18:00 +13°C° 0 mm 1 m/s 634 mmHg 77%
    19:00 +12°C° 0 mm 1 m/s 634 mmHg 75%
    20:00 +12°C° 0 mm 1 m/s 634 mmHg 73%
    21:00 +12°C° 0 mm 1 m/s 634 mmHg 72%
    22:00 +12°C° 0 mm 1 m/s 634 mmHg 69%
    23:00 +12°C° 0 mm 1 m/s 634 mmHg 65%

    26 Setembro, Quinta-feira

    Tempo Temperatura Precipitação Vento Pressão Humidade
    00:00 +12°C° 0 mm 1 m/s 634 mmHg 62%
    01:00 +12°C° 0 mm 1 m/s 634 mmHg 62%
    02:00 +12°C° 0 mm 1 m/s 634 mmHg 62%
    03:00 +12°C° 0 mm 1 m/s 634 mmHg 62%
    04:00 +10°C° 0 mm 2 m/s 634 mmHg 63%
    05:00 +10°C° 0 mm 2 m/s 634 mmHg 63%
    06:00 +10°C° 0 mm 2 m/s 634 mmHg 64%
    07:00 +14°C° 0 mm 2 m/s 635 mmHg 59%
    08:00 +16°C° 0 mm 2 m/s 636 mmHg 53%
    09:00 +19°C° 0 mm 2 m/s 637 mmHg 48%
    10:00 +19°C° 0 mm 3 m/s 637 mmHg 46%
    11:00 +20°C° 0 mm 3 m/s 637 mmHg 44%
    12:00 +21°C° 0 mm 3 m/s 636 mmHg 43%
    13:00 +21°C° 0 mm 3 m/s 636 mmHg 42%
    14:00 +20°C° 0 mm 3 m/s 636 mmHg 42%
    15:00 +20°C° 0 mm 3 m/s 635 mmHg 42%
    16:00 +18°C° 0 mm 2 m/s 635 mmHg 50%
    17:00 +16°C° 0 mm 2 m/s 634 mmHg 58%
    18:00 +14°C° 0 mm 1 m/s 633 mmHg 66%
    19:00 +14°C° 0 mm 1 m/s 633 mmHg 67%
    20:00 +13°C° 0 mm 1 m/s 634 mmHg 68%
    21:00 +13°C° 0 mm 1 m/s 634 mmHg 69%
    22:00 +13°C° 0 mm 1 m/s 634 mmHg 71%
    23:00 +12°C° 0 mm 1 m/s 634 mmHg 73%

    27 Setembro, Sexta-feira

    Tempo Temperatura Precipitação Vento Pressão Humidade
    00:00 +12°C° 0 mm 1 m/s 634 mmHg 75%
    01:00 +12°C° 0 mm 1 m/s 633 mmHg 74%
    02:00 +12°C° 0 mm 1 m/s 633 mmHg 74%
    03:00 +12°C° 0 mm 1 m/s 633 mmHg 73%
    04:00 +12°C° 0 mm 2 m/s 633 mmHg 72%
    05:00 +12°C° 0 mm 2 m/s 633 mmHg 72%
    06:00 +12°C° 0 mm 2 m/s 633 mmHg 71%
    07:00 +14°C° 0 mm 2 m/s 634 mmHg 66%
    08:00 +16°C° 0 mm 2 m/s 635 mmHg 61%
    09:00 +18°C° 0 mm 2 m/s 636 mmHg 55%
    10:00 +19°C° 0 mm 2 m/s 636 mmHg 54%
    11:00 +20°C° 0 mm 3 m/s 636 mmHg 52%
    12:00 +20°C° 0 mm 3 m/s 636 mmHg 50%
    13:00 +20°C° 0 mm 3 m/s 636 mmHg 51%
    14:00 +20°C° 0 mm 3 m/s 635 mmHg 51%
    15:00 +20°C° 0 mm 3 m/s 635 mmHg 52%
    16:00 +18°C° 0 mm 2 m/s 634 mmHg 59%
    17:00 +16°C° 0 mm 2 m/s 633 mmHg 67%
    18:00 +14°C° 0 mm 1 m/s 633 mmHg 75%
    19:00 +14°C° 0 mm 1 m/s 633 mmHg 73%
    20:00 +14°C° 0 mm 1 m/s 633 mmHg 72%
    21:00 +14°C° 0 mm 1 m/s 633 mmHg 70%
    22:00 +14°C° 0 mm 1 m/s 633 mmHg 72%
    23:00 +14°C° 0 mm 1 m/s 633 mmHg 74%

    28 Setembro, Sábado

    Tempo Temperatura Precipitação Vento Pressão Humidade
    00:00 +14°C° 0 mm 2 m/s 633 mmHg 75%
    01:00 +13°C° 0 mm 2 m/s 633 mmHg 76%
    02:00 +13°C° 0 mm 2 m/s 632 mmHg 76%
    03:00 +13°C° 0 mm 2 m/s 632 mmHg 76%
    04:00 +13°C° 0 mm 2 m/s 632 mmHg 76%
    05:00 +13°C° 0 mm 1 m/s 632 mmHg 75%
    06:00 +12°C° 0 mm 1 m/s 631 mmHg 75%
    07:00 +15°C° 0 mm 2 m/s 632 mmHg 68%
    08:00 +17°C° 0 mm 2 m/s 633 mmHg 61%
    09:00 +19°C° 0 mm 3 m/s 633 mmHg 53%
    10:00 +19°C° 0 mm 3 m/s 633 mmHg 54%
    11:00 +19°C° 0 mm 3 m/s 634 mmHg 55%
    12:00 +19°C° 0 mm 4 m/s 634 mmHg 55%
    13:00 +18°C° 0.2 mm 3 m/s 634 mmHg 63%
    14:00 +16°C° 0.2 mm 3 m/s 633 mmHg 71%
    15:00 +15°C° 0.2 mm 2 m/s 633 mmHg 78%
    16:00 +14°C° 0.1 mm 2 m/s 633 mmHg 81%
    17:00 +13°C° 0.1 mm 2 m/s 633 mmHg 84%
    18:00 +12°C° 0.1 mm 1 m/s 633 mmHg 86%
    19:00 +12°C° 0 mm 1 m/s 633 mmHg 87%
    20:00 +11°C° 0 mm 1 m/s 633 mmHg 87%
    21:00 +11°C° 0 mm 1 m/s 634 mmHg 88%
    22:00 +11°C° 0 mm 1 m/s 634 mmHg 89%
    23:00 +10°C° 0 mm 1 m/s 634 mmHg 90%
    Mostrar mais